Tracking 18816 objects as of 18-October-2017
HD Live streaming from Space Station
objects crossing your sky now

W75/ABS-1B (HOT BIRD 3)

Track W75/ABS-1B (HOT BIRD 3) now!
W75/ABS-1B (HOT BIRD 3) is classified as:


NORAD ID: 24931
Int'l Code: 1997-049A
Perigee: 35,104.7 km
Apogee: 35,268.0 km
Inclination: 6.5 °
Period: 1,405.2 minutes
Semi major axis: 41557 km
RCS: 15.8489 m2 (large)
Launch date: September 2, 1997
Source: European Telecommunications Satellite Organization (EUTE)
Launch site: FRENCH GUIANA (FRGUI)

Cable programming; direct-to-home broadcasting; Europe, North Africa, 20 active channels
aabbcc
Your satellite tracking list
Your tracking list is empty





NASA's NSSDC Master Catalog

Two Line Element Set (TLE):
1 24931U 97049A   17290.18190013 -.00000016 +00000-0 +00000-0 0  9998
2 24931 006.4844 052.9550 0019647 316.7433 071.2245 01.02478082074269
Source of the keplerian elements: AFSPC